Home   Weather   Oslo   Past weeks

Flag for Norway Past Weather in Oslo, Norway — Yesterday and Last 2 Weeks

Now
58 °F

Cool.


Feels Like: 57 °F
Forecast: 48 / 63 °F
Wind: 7 mph from South

Location: Oslo-Blindern

Current Time: Sep 27, 2016 at 7:30:03 PM

Latest Report: Sep 27, 2016 at 6:00 PM


Visibility: 22 mi

Pressure: 30.00 "Hg

Humidity: 76%

Dew Point: 51 °F

Location of OsloLocation

Past Weather in Oslo — Graph

°F

Oslo Temperature Yesterday

Maximum temperature yesterday: 67 °F (at 3:00 PM)
Minimum temperature yesterday: 50 °F (at 11:00 PM)
Average temperature yesterday: 58 °F

High & Low Weather Summary for the Past Weeks

 TemperatureHumidityPressure
High74 °F (Sep 15, 4:00 PM)99% (Sep 15, 8:00 AM)30.27 "Hg (Sep 15, 8:00 AM)
Low42 °F (Sep 24, 7:00 AM)50% (Sep 17, 4:00 PM)29.94 "Hg (Sep 23, 5:00 PM)
Average59 °F84%30.13 "Hg
* Reported Sep 12 6:00 PM — Sep 27 6:00 PM, Oslo, Weather by CustomWeather, © 2016

Note: Actual official high and low records may vary slightly from our data, if they occured in-between our weather recording intervals... More about our weather records

Advertising

Oslo Weather History for the Previous 24 Hours

Scroll right to see more
 ConditionsComfort  
Time TempWeatherWind HumidityBarometerVisibility
6:00 PM
Tue, Sep 27
58 °FCool.7 mph76%30.00 "Hg22 mi
5:00 PM59 °FOvercast.7 mph76%30.03 "Hg31 mi
2:00 PM59 °FOvercast.3 mph72%30.14 "Hg43 mi
1:00 PM59 °FCool.3 mph76%30.17 "Hg19 mi
12:00 PM58 °FCool.3 mph75%30.19 "Hg16 mi
11:00 AM54 °FScattered clouds.2 mph82%30.21 "Hg40 mi
10:00 AM55 °FCool.1 mph79%30.22 "Hg19 mi
9:00 AM54 °FCool.1 mph81%30.22 "Hg17 mi
8:00 AM51 °FLow clouds.1 mph93%30.22 "Hg19 mi
7:00 AM51 °FCool.1 mph94%30.23 "Hg11 mi
6:00 AMN/AN/AN/AN/A12 mi
5:00 AM51 °FCool.1 mph93%30.22 "Hg16 mi
4:00 AM52 °FCool.1 mph95%30.22 "Hg12 mi
3:00 AM51 °FCool.1 mph97%30.22 "Hg11 mi
2:00 AM49 °FCool.2 mph97%30.22 "Hg11 mi
1:00 AM49 °FCool.2 mph96%30.22 "Hg12 mi
12:00 AM49 °FCool.3 mph96%30.22 "Hg15 mi
11:00 PM
Mon, Sep 26
50 °FCool.No wind95%30.21 "Hg16 mi
10:00 PM52 °FCool.1 mph93%30.20 "Hg17 mi
9:00 PM54 °FCool.2 mph88%30.19 "Hg19 mi
8:00 PM56 °FPassing clouds.2 mph85%30.17 "Hg40 mi
7:00 PM59 °FCool.2 mph74%30.16 "Hg28 mi
Weather by CustomWeather, © 2016

See weather overviewHow to use our weather pages